Preview of NWS' New Version of Forecast
This preview is not operational and should not be used for support decisions.

Regional Weather Roundup (RWR)

Issued by Gray - Portland, ME (GYX)

                            
000
ASUS41 KGYX 170610
RWRGYX
WEATHER ROUNDUP FOR MAINE AND NEW HAMPSHIRE
NATIONAL WEATHER SERVICE GRAY ME
100 AM EST THU JAN 17 2019

MEZ002-005-006-010-012-015-018-020-021-024-026-027-029-170700-
MAINE
  
CITY           SKY/WX    TMP DP  RH WIND       PRES   REMARKS
PORTLAND       FAIR      20   5  52 NW9       30.16R                  
6HR MIN TEMP:  20; 6HR MAX TEMP:  34;                                

SANFORD        FAIR      18   1  47 W14G22    30.17R WCI   4          
BAR HARBOR     FAIR      16   2  54 NW10G18   30.09R WCI   4          
WISCASSET      FAIR      17   1  49 VRB6      30.16R                  
6HR MIN TEMP:  17; 6HR MAX TEMP:  34;                                

ROCKLAND       FAIR      18   2  49 NW10G18   30.11R WCI   6          
FRYEBURG       FAIR      12  -3  51 CALM      30.15R                  
6HR MIN TEMP:  12; 6HR MAX TEMP:  31; 6HR PCP: TRACE;                

LEWISTONAUBURN FAIR      14   2  58 NW6       30.16R                  
AUGUSTA        FAIR      12  -2  53 NW8       30.14R                  
6HR MIN TEMP:  12; 6HR MAX TEMP:  32; 6HR PCP: TRACE;                

WATERVILLE     FAIR      11   1  64 MISG      30.11R                  
BANGOR         FAIR      13  -3  49 NW17G24   30.12R WCI  -4          
6HR MIN TEMP:  13; 6HR MAX TEMP:  33;                                

GREENVILLE       N/A      0 -11  59 NW18G29   29.98R WCI -21          
6HR MIN TEMP:   0; 6HR MAX TEMP:  24;                                

MILLINOCKET    FAIR       5  -6  60 W12G28    30.07R WCI -11          
6HR MIN TEMP:   5; 6HR MAX TEMP:  28; 6HR PCP: TRACE;                

HOULTON        FAIR       6  -3  66 W13G21    30.00R WCI -10          
6HR MIN TEMP:   6; 6HR MAX TEMP:  28; 6HR PCP:  0.01;                

PRESQUE ISLE   FAIR       5  -2  72 W13       30.01R WCI -12          
FRENCHVILLE    FAIR      -1 -10  65 NW15      29.94R WCI -21          
6HR MIN TEMP:  -1; 6HR MAX TEMP:  26; 6HR PCP: TRACE;                

CARIBOU        FAIR       4  -6  63 W10G18    29.96R WCI -11          
6HR MIN TEMP:   4; 6HR MAX TEMP:  26; 6HR PCP:  0.02;                

$$

NHZ002-005-008-009-011-012-014-170700-
NEW HAMPSHIRE
  
CITY           SKY/WX    TMP DP  RH WIND       PRES   REMARKS
PORTSMOUTH     PTCLDY    21  -4  32 W16       30.16R WCI   7          
ROCHESTER      FAIR      18  -1  43 NW16G23   30.17R WCI   3          
6HR MIN TEMP:  18; 6HR MAX TEMP:  34; 6HR PCP: TRACE;                

NASHUA         FAIR      24   6  46 NW15G24   30.20R WCI  11          
MANCHESTER     FAIR      22   0  38 NW15      30.18R WCI   9          
6HR MIN TEMP:  22; 6HR MAX TEMP:  36; 6HR PCP: TRACE;                

CONCORD        FAIR      16   1  51 NW12G21   30.20R WCI   3          
6HR MIN TEMP:  16; 6HR MAX TEMP:  34;                                

LACONIA        FAIR      12   1  61 N3        30.19R                  
PLYMOUTH       FAIR      10  -1  60 W7        30.20R                  
BERLIN         FAIR       6  -2  69 VRB7      30.11R                  
6HR MIN TEMP:   6; 6HR MAX TEMP:  26; 6HR PCP: TRACE;                

WHITEFIELD     FAIR       4  -1  80 SE3       30.16R                  
6HR MIN TEMP:   4; 6HR MAX TEMP:  26; 6HR PCP: TRACE;                

JAFFREY        FAIR      19   4  51 NW8       30.14R                  
6HR MIN TEMP:  19; 6HR MAX TEMP:  33;                                

KEENE          FAIR      18   4  54 N15G21    30.21  WCI   4          
LEBANON        FAIR      12  -3  51 N6        30.21R                  
6HR MIN TEMP:  12; 6HR MAX TEMP:  32; 6HR PCP: TRACE;                

MT WASHINGTON  MOCLDY   -17 -18  91 NW67        N/A  WCI -59          
6HR MIN TEMP: -16; 6HR MAX TEMP:   3; 6HR PCP: TRACE;                

$$

VTZ005-007-008-170700-
VERMONT
  
CITY           SKY/WX    TMP DP  RH WIND       PRES   REMARKS
ST JOHNSBURY     N/A      5  -5  63 MISG      30.21R                  
MONTPELIER     FAIR       4  -4  69 NW8       30.22R                  
BURLINGTON     MOCLDY     6  -5  60 N8        30.30R                  
$$

MAZ007-012-024-CTZ003-RIZ002-NYZ038-NYZ072-170700-
SOUTHERN NEW ENGLAND AND NY
  
CITY           SKY/WX    TMP DP  RH WIND       PRES   REMARKS
BOSTON         FAIR      31  11  43 NW12G21   30.18R                  
WORCESTER      CLOUDY    24  13  62 NW10      30.13R WCI  14          
NANTUCKET      FAIR      33  16  49 NW20G29   30.14R                  
PROVIDENCE     FAIR      29  14  53 NW7       30.18R                  
HARTFORD       FAIR      26  11  52 NW14G22   30.21S WCI  14          
ALBANY         FAIR      21   0  39 NW14      30.29R WCI   8          
NEW YORK CITY  MOCLDY    32  13  45 NW16      30.25R                  
$$

ANZ081-ANZ082-ANZ150-NHZ014-MEZ023>029-170700-
COASTAL MARINE OBSERVATIONS
  
STATION/POSITION TIME  TEMP    WIND        PRES    WAVE
                       AIR SEA DIR/SP/G            HT/PER
                 (UTC) (F)     (DEG/KT/KT) (MB)    (FT/S)
MOUNT DESERT ROC 0600   24     300/ 37/ 41 1016.8R
MATINICUS ROCK   0500   28     320/ 27/ 29 1016.6R
ISLE OF SHOALS   0500   27     310/ 23/ 26 1019.8R
JEFFREYS LEDGE   0538      43                N/A     6/ 5
CASHES LEDGE BUO 0550   30 40              1018.0R   8/ 6
$$

.............KEY..............
   WCI - WIND CHILL
   TC  - TEMPERATURE IN CELSIUS
   VSB - VISIBILITY IN MILES
   HX  - HEAT INDEX
   FAIR- INDICATES FEW OR NO CLOUDS BELOW 12,000 FT, WITH NO 
         SIGNIFICANT WEATHER AND/OR OBSTRUCTIONS TO VISIBILITY.